星链-32487 (STARLINK-32487)

导读 | 豆包AI

STARLINK-32487是美国SpaceX公司星链(Starlink)项目的卫星,于2024年11月14日成功发射。作为星链星座的组成部分,它运行在近地轨道,旨在为全球偏远、网络覆盖不足地区提供低延迟、高速的宽带互联网服务。星链计划最终将部署数万颗卫星,这颗卫星的入轨进一步完善了星链的全球覆盖能力,推动卫星互联网的普及应用。

基本信息
目录编号:
61963
目录名称:
STARLINK-32487
国际标识:
2024-210E
轨道中心:
EARTH
卫星名称:
星链-32487
卫星全名:
星链-32487 (STARLINK-32487)
卫星状态:
在轨 (已飞行486 天)
发射日期:
2024-11-14 UTC
国别 :
美国 (US)
星等 :
--
轨道信息
数据来源 国际轨道数据
星历时间: 2026-03-14T22:59:18+0800
18小时前
查看轨道信息
半长轴: 6861.05km
偏心率: 0.0001548
轨道倾角: 42.999°
近地点辐角 273.856°
升交点赤经 152.041°
平近点角 86.211°
近地点: 481.85km
远地点: 483.976km
周期: 94.264分钟
每日圈数: 15.276257
详细信息
固有亮度:
5
最大亮度:
2.5
卫星平台:
Starlink V1.0
覆盖范围:
全球
运营商:
太空探索技术公司
运营商所在国:
美国
制造商(研发单位):
太空探索技术公司
制造商所在国:
美国
使用方式:
暂无
卫星简介
Starlink 计划是 SpaceX 推出的全球卫星互联网项目,通过发射低轨道卫星,为全球尤其是偏远地区提供高速、低延迟的互联网服务。自 2019 年起,Starlink 已部署数千颗卫星,旨在缩小全球数字鸿沟,推动互联网普及。该项目还为军事、航空等行业提供通信支持,带来广泛经济效益。
2D轨道图
3D轨道图
轨道高度分析图
轨道倾角分析图
轨道综合分析图
查看轨道综合分析图